Location: Trebic
(49.2170°N, 15.8830°E)
Time: 01:19:35
(UTC+02:00)

Vanguard 1 - All Passes

Search period start: 14 October 2019 00:00
Search period end: 24 October 2019 00:00
Orbit: 653 x 3830 km, 34.3° (Epoch: 12 October)

Date Brightness Start Highest point End Pass type
(mag) Time Alt. Az. Time Alt. Az. Time Alt. Az.
14 Oct - 00:56:42 10° WSW 01:12:47 47° SSW 01:34:10 10° SE visible
14 Oct - 03:19:54 10° W 03:36:23 30° SW 03:54:17 10° SSE visible
14 Oct - 20:39:04 10° SSW 20:48:34 33° SSE 21:03:39 10° E visible
14 Oct - 22:57:05 10° WSW 23:10:08 48° S 23:30:31 10° ESE visible
15 Oct - 01:17:44 10° W 01:33:45 43° SSW 01:54:37 10° SE visible
15 Oct - 03:41:55 10° W 03:56:57 25° SW 04:13:07 10° S visible
15 Oct - 18:45:23 10° SSE 18:49:58 14° SE 18:55:42 10° ESE visible
15 Oct - 20:59:12 10° SW 21:09:04 37° SSE 21:25:11 10° E visible
15 Oct - 23:17:48 10° WSW 23:31:05 48° S 23:51:36 10° ESE visible
16 Oct - 01:38:54 10° W 01:54:41 39° SSW 02:14:48 10° SE visible
16 Oct - 04:04:35 10° W 04:17:26 20° SW 04:31:04 10° S visible
16 Oct - 19:03:54 10° S 19:10:03 19° SE 19:18:35 10° E visible
16 Oct - 21:19:31 10° SW 21:29:42 41° SSE 21:46:37 10° E visible
16 Oct - 23:38:37 10° WSW 23:52:04 47° S 00:12:30 10° ESE visible
17 Oct - 02:00:14 10° W 02:15:32 34° SSW 02:34:36 10° SSE visible
17 Oct - 04:28:45 10° WSW 04:37:50 14° SW 04:47:19 10° SSW visible
17 Oct - 19:23:17 10° S 19:30:15 24° SE 19:40:42 10° E visible
17 Oct - 21:40:00 10° SW 21:50:26 43° SSE 22:07:56 10° ESE visible
17 Oct - 23:59:31 10° WSW 00:13:03 44° S 00:33:13 10° SE visible
18 Oct - 02:21:49 10° W 02:36:19 29° SSW 02:53:57 10° SSE visible
18 Oct - 19:43:05 10° SSW 19:50:35 28° SSE 20:02:26 10° E visible
18 Oct - 22:00:35 10° WSW 22:11:16 44° S 22:29:08 10° ESE visible
19 Oct - 00:20:30 10° W 00:34:01 40° SSW 00:53:41 10° SE visible
19 Oct - 02:43:49 10° W 02:57:01 23° SW 03:12:38 10° S visible
19 Oct - 20:03:11 10° SSW 20:11:04 33° SSE 20:23:59 10° E visible
19 Oct - 22:21:16 10° WSW 22:32:09 44° S 22:50:13 10° ESE visible
20 Oct - 00:41:38 10° W 00:54:58 36° SSW 01:13:49 10° SE visible
20 Oct - 03:06:36 10° WSW 03:17:40 18° SW 03:30:18 10° S visible
20 Oct - 18:08:39 10° SSE 18:12:38 14° SE 18:17:43 10° ESE daylight
20 Oct - 20:23:29 10° SW 20:31:39 36° SSE 20:45:22 10° ESE visible
20 Oct - 22:42:03 10° WSW 22:53:05 42° S 23:11:07 10° ESE visible
21 Oct - 01:02:57 10° W 01:15:52 31° SSW 01:33:33 10° SSE visible
21 Oct - 03:31:17 10° WSW 03:38:15 13° SW 03:45:48 10° SSW visible
21 Oct - 18:27:45 10° S 18:32:52 19° SE 18:40:02 10° ESE visible
21 Oct - 20:43:56 10° SW 20:52:20 38° SSE 21:06:39 10° ESE visible
21 Oct - 23:02:55 10° WSW 23:14:01 40° S 23:31:48 10° SE visible
22 Oct - 01:24:33 10° WSW 01:36:44 26° SSW 01:52:45 10° SSE visible
22 Oct - 18:47:27 10° SSW 18:53:13 23° SSE 19:01:48 10° ESE visible
22 Oct - 21:04:30 10° WSW 21:13:06 39° S 21:27:49 10° ESE visible
22 Oct - 23:23:53 10° WSW 23:34:58 36° SSW 23:52:14 10° SE visible
23 Oct - 01:46:40 10° WSW 01:57:32 21° SW 02:11:14 10° S visible
23 Oct - 19:07:29 10° SSW 19:13:39 27° SSE 19:23:19 10° ESE visible
23 Oct - 21:25:10 10° WSW 21:33:57 39° S 21:48:50 10° ESE visible
